Hourly Data Report for October 06, 2017

All times are specified in Local Standard Time (LST). Add 1 hour to adjust for Daylight Saving Time where and when it is observed.

SPRAGUE
MANITOBA

49°01'25.000" N
95°35'54.009" W
328.80 m
5022759
71449
WSU

Download Data

Hourly Data (October 2017)
Hourly Data Report for October 6, 2017
Temp Definition
°C
Dew Point Temp Definition
°C
Rel Hum Definition
%
Wind Dir Definition
10's deg

Wind Spd Definition
km/h
Visibility Definition
km
Stn Press Definition
kPa
Hmdx Definition


Wind Chill Definition


Weather Definition


TIME
00:00 -0.2 -0.7 96 20 4   97.89   -1 LegendNANA
01:00 -0.6 -1.0 97 17 2   97.88   -1 LegendNANA
02:00 -0.8 -1.3 97 18 2   97.87   -1 LegendNANA
03:00 -0.8 -1.2 97 19 3   97.83   -2 LegendNANA
04:00 -1.2 -1.6 97 11 2   97.78   -2 LegendNANA
05:00 -1.5 -1.9 97 16 4   97.75   -3 LegendNANA
06:00 -1.5 -1.9 97 19 3   97.74   -3 LegendNANA
07:00 1.4 0.7 96 17 2   97.70     LegendNANA
08:00 3.6 2.2 91 18 4   97.65     LegendNANA
09:00 7.1 3.9 80 20 5   97.57     LegendNANA
10:00 10.3 4.4 67 20 7   97.57     LegendNANA
11:00 11.6 4.0 60 19 10   97.52     LegendNANA
12:00 14.5 3.8 49 19 9   97.40     LegendNANA
13:00 14.3 3.3 47 20 11   97.27     LegendNANA
14:00 14.7 3.3 46 21 10   97.11     LegendNANA
15:00 16.5 2.8 40 21 10   96.99     LegendNANA
16:00 15.9 3.3 43 19 7   96.89     LegendNANA
17:00 14.9 2.8 44 21 8   96.82     LegendNANA
18:00 11.8 3.2 56 20 5   96.81     LegendNANA
19:00 9.3 2.9 64 17 6   96.75     LegendNANA
20:00 10.0 2.5 60 18 8   96.68     LegendNANA
21:00 8.8 3.3 68 18 8   96.58     LegendNANA
22:00 8.0 3.5 73 17 7   96.53     LegendNANA
23:00 6.8 3.4 79 16 6   96.42     LegendNANA

Notes on Data Quality.

Legend

  • E = Estimated
  • M = Missing
  • NA = Not Available
  • ‡ = Partner data that is not subject to review by the National Climate Archives
Date modified: